Location: Bégole
(43.1574°N, 0.3291°E)
Time: 01:33:26
(UTC+00:00)

deb Delta 89 - Pass Details

Date: 21 February 2024
Orbit: 714 x 2021 km, 97.5° (Epoch: 13 April)

Event Time Altitude Azimuth Distance (km) Brightness Sun altitude
Rises 01:16:10 0° 16° (NNE) 5,431 ? -54.8°
Reaches altitude 10° 01:19:54 10° 25° (NNE) 4,473 ? -54.5°
Enters shadow 01:28:37 35° 73° (ENE) 2,888 ? -53.6°
